[[{"header":{"parameterUnit":"m.s-1","parameterCategory":1,"la1":30.2991,"la2":30.254,"lo1":-89.0895,"lo2":-89.0444,"dy":0.0017,"dx":0.0017,"nx":28,"ny":28,"refTime":"2024-07-08T03:00:00:Z","depth":0,"parameterNumber":2,"parameterNumberName":"U-component_of_WINDS"},"data":[0,0,0,0,0,0,0,0,0,0,0,0,0,0,0,0,0,0,0,0,0,0,0,0,0,0,0,0,0,0,0,0,0,0,0,0,0,0,0,0,0,0,0,0,0,0,0,0,0,0,0,0,0,0,0,0,0,0,-2.6758,-2.6758,0,-2.6748,-2.6748,-2.6748,-2.6676,-2.6674,-2.6672,-2.667,-2.6663,-2.6664,-2.6665,0,0,0,0,0,0,0,0,0,0,0,0,0,-2.6715,-2.6716,-2.6758,-2.6758,-2.6758,-2.6748,-2.6748,-2.6748,-2.6676,-2.6674,-2.6672,-2.667,-2.6662,-2.6664,-2.6666,0,0,0,0,0,0,0,0,0,0,0,0,0,-2.6723,-2.6717,-2.6758,-2.6721,-2.6717,-2.6748,-2.6748,-2.6748,-2.6676,-2.6674,-2.6671,-2.6669,-2.6662,-2.6664,-2.6666,-2.6733,0,0,-2.6672,-2.6673,0,0,0,0,0,0,0,0,-2.6722,-2.6724,-2.6726,-2.6723,-2.6719,-2.671,-2.673,-2.6743,-2.6677,-2.6692,-2.667,-2.6667,-2.6681,-2.6681,-2.6685,-2.6732,-2.6732,-2.6673,-2.6674,-2.6675,-2.6676,0,0,0,0,0,0,0,-2.6722,-2.6724,-2.6754,-2.6726,-2.6722,-2.6705,-2.6703,-2.6732,-2.6702,-2.669,-2.6685,-2.6685,-2.6678,-2.6683,-2.6685,-2.6732,-2.6673,-2.6675,-2.6676,-2.6677,-2.6833,-2.6836,0,0,0,0,0,0,-2.6726,-2.6724,-2.6754,-2.6754,-2.6714,-2.6708,-2.6705,-2.6716,-2.6701,-2.6696,-2.6687,-2.6682,-2.6681,-2.6682,-2.6684,-2.6761,-2.6675,-2.6677,-2.6678,-2.683,-2.6833,-2.6837,0,0,0,0,0,0,-2.6726,-2.673,-2.6755,-2.6738,-2.6739,-2.6711,-2.6724,-2.6717,-2.6722,-2.6699,-2.6693,-2.6698,-2.6679,-2.6681,-2.6721,-2.6759,-2.6678,-2.668,-2.6827,-2.6831,-2.6835,-2.6915,0,0,0,0,0,0,-2.6725,-2.673,-2.6755,-2.6739,-2.6741,-2.6792,-2.6726,-2.6719,-2.6726,-2.6718,-2.6707,-2.6703,-2.6677,-2.6718,-2.6723,-2.6761,-2.6682,-2.6823,-2.6829,-2.6834,-2.6909,-2.6922,-2.6933,0,0,0,0,0,-2.6724,-2.6778,-2.6756,-2.676,-2.6771,-2.6794,-2.6795,-2.6764,-2.6729,-2.6754,-2.6739,-2.6703,-2.6755,-2.6723,-2.6728,-2.6767,-2.682,-2.6827,-2.6833,-2.6904,-2.6919,-2.6932,0,0,0,0,0,0,-2.6801,-2.6776,-2.6751,-2.6802,-2.6801,-2.6782,-2.6812,-2.6782,-2.679,-2.6783,-2.6745,-2.6743,-2.6788,-2.6782,-2.6747,-2.6831,-2.6781,-2.6789,-2.6833,-2.6848,-2.6859,-2.686,-2.6683,0,0,0,0,0,-2.6823,-2.6843,-2.6821,-2.6868,-2.6869,-2.6841,-2.685,-2.6826,-2.6823,-2.6822,-2.681,-2.6809,-2.6825,-2.6836,-2.6849,-2.6908,-2.6904,-2.6937,-2.6949,-2.6959,-2.6966,-2.6996,-2.701,-2.6858,-2.6857,-2.6857,0,0,-2.6871,-2.686,-2.6875,-2.6883,-2.6879,-2.6901,-2.6841,-2.6867,-2.6883,-2.6826,-2.6862,-2.6854,-2.685,-2.69,-2.6921,-2.6895,-2.7007,-2.6967,-2.6975,-2.6977,-2.7004,-2.7018,-2.7031,-2.6862,-2.6861,-2.686,0,0,-2.6968,-2.6962,-2.7001,-2.6998,-2.6992,-2.6973,-2.6982,-2.6968,-2.696,-2.6996,-2.6953,-2.6972,-2.7001,-2.7,-2.7003,-2.71,-2.7067,-2.7106,-2.7167,-2.7197,-2.7209,-2.7219,-2.7253,-2.7266,-2.7113,-2.7113,-2.7113,0,-2.7028,-2.7059,-2.7024,-2.7053,-2.7058,-2.7007,-2.7045,-2.7044,-2.7044,-2.7049,-2.702,-2.7054,-2.7049,-2.7097,-2.712,-2.7125,-2.7134,-2.7106,-2.721,-2.722,-2.7229,-2.7261,-2.7274,-2.7118,-2.7117,-2.7117,-2.7116,0,-2.7133,-2.7155,-2.7187,-2.7186,-2.7195,-2.7229,-2.7199,-2.7212,-2.7188,-2.7172,-2.7209,-2.72,-2.721,-2.722,-2.7197,-2.7265,-2.7249,-2.7216,-2.7166,-2.7249,-2.7278,-2.729,-2.7124,-2.7123,-2.7121,-2.712,0,0,-2.7279,-2.7258,-2.727,-2.7269,-2.7259,-2.7276,-2.7307,-2.7316,-2.7328,-2.733,-2.7355,-2.738,-2.7349,-2.7352,-2.7329,-2.7355,-2.7431,-2.7318,-2.7317,-2.7339,-2.7505,-2.753,-2.7545,-2.741,-2.7412,-2.7414,-2.7505,0,-2.7372,-2.7423,-2.7392,-2.7448,-2.7468,-2.742,-2.7447,-2.7444,-2.7431,-2.7446,-2.7431,-2.7449,-2.7406,-2.7408,-2.7432,-2.7417,-2.7464,-2.741,-2.7433,-2.7434,-2.7434,-2.756,-2.7587,-2.7673,-2.7517,-2.7519,-2.752,0,-2.7487,-2.7492,-2.755,-2.7535,-2.7543,-2.7568,-2.7573,-2.7588,-2.7584,-2.7572,-2.7577,-2.7546,-2.7576,-2.7527,-2.7568,-2.7532,-2.7539,-2.7533,-2.7536,-2.7536,-2.7482,-2.7563,-2.77,-2.7713,-2.7538,-2.7537,-2.7535,0,-2.7587,-2.7609,-2.7645,-2.7646,-2.763,-2.7649,-2.7643,-2.7636,-2.7644,-2.7649,-2.7654,-2.7663,-2.7668,-2.7676,-2.765,-2.7616,-2.7694,-2.7642,-2.7685,-2.7686,-2.7703,-2.7702,-2.7842,-2.7709,-2.7709,-2.7709,-2.7709,0,-2.7693,-2.7731,-2.769,-2.7713,-2.7753,-2.7718,-2.7759,-2.7748,-2.7742,-2.7762,-2.7722,-2.7742,-2.7705,-2.7722,-2.7701,-2.7738,-2.7741,-2.7732,-2.7726,-2.7735,-2.7736,-2.7739,-2.7732,-2.7712,-2.7711,-2.7711,-2.771,0,-2.7811,-2.7786,-2.7823,-2.7804,-2.7801,-2.7831,-2.7815,-2.7836,-2.7819,-2.7845,-2.7849,-2.7824,-2.7841,-2.7815,-2.783,-2.7816,-2.7866,-2.7851,-2.7867,-2.7862,-2.7906,-2.7902,-2.8053,-2.807,-2.7927,-2.7928,-2.7929,0,-2.7881,-2.7908,-2.7892,-2.7902,-2.7899,-2.7916,-2.7923,-2.7889,-2.7899,-2.7895,-2.7917,-2.793,-2.7939,-2.7969,-2.7952,-2.7963,-2.7948,-2.7999,-2.7949,-2.7957,-2.7947,-2.7946,-2.7948,-2.801,-2.8011,-2.8013,-2.8014,0,-2.8007,-2.7993,-2.8004,-2.8011,-2.802,-2.8024,-2.8025,-2.8036,-2.8001,-2.8013,-2.8029,-2.8036,-2.8051,-2.8065,-2.8071,-2.8066,-2.8035,-2.803,-2.804,-2.805,-2.8058,-2.8053,-2.7895,-2.8027,-2.8025,-2.8025,-2.8024,-2.8023,-2.8102,-2.8124,-2.8116,-2.813,-2.8127,-2.8128,-2.8147,-2.8132,-2.8145,-2.8153,-2.8133,-2.8154,-2.8149,-2.8154,-2.8152,-2.8169,-2.8146,-2.8161,-2.8165,-2.8169,-2.8176,-2.8056,-2.817,-2.817,-2.8169,-2.8169,-2.8169,0,-2.8226,-2.8218,-2.8231,-2.8233,-2.8244,-2.8212,-2.8212,-2.8223,-2.8242,-2.824,-2.8249,-2.8268,-2.8281,-2.8265,-2.8275,-2.8292,-2.8277,-2.8296,-2.8294,-2.8293,-2.8196,-2.8185,-2.8307,-2.8307,-2.8307,-2.8307,-2.8307,-2.8307,-2.8291,-2.8326,-2.8311,-2.8343,-2.8335,-2.8355,-2.8357,-2.8359,-2.8356,-2.8379,-2.8389,-2.8378,-2.837,-2.838,-2.8391,-2.8385,-2.8391,-2.8414,-2.8404,-2.8313,-2.83,-2.8287,-2.8277,-2.8416,-2.8416,-2.85,-2.8501,-2.8501]},{"header":{"parameterUnit":"m.s-1","parameterCategory":1,"la1":30.2991,"la2":30.254,"lo1":-89.0895,"lo2":-89.0444,"dy":0.0017,"dx":0.0017,"nx":28,"ny":28,"refTime":"2024-07-08T03:00:00:Z","depth":0,"parameterNumber":3,"parameterNumberName":"V-component_of_WINDS"},"data":[0,0,0,0,0,0,0,0,0,0,0,0,0,0,0,0,0,0,0,0,0,0,0,0,0,0,0,0,0,0,0,0,0,0,0,0,0,0,0,0,0,0,0,0,0,0,0,0,0,0,0,0,0,0,0,0,0,0,4.6699,4.6699,0,4.6739,4.674,4.674,4.6665,4.6662,4.666,4.6657,4.6696,4.6699,4.6702,0,0,0,0,0,0,0,0,0,0,0,0,0,4.6552,4.6555,4.6698,4.6699,4.67,4.6739,4.674,4.674,4.6665,4.6662,4.6659,4.6656,4.6695,4.6699,4.6703,0,0,0,0,0,0,0,0,0,0,0,0,0,4.6606,4.6556,4.6698,4.6667,4.6664,4.6739,4.674,4.674,4.6666,4.6662,4.6658,4.6655,4.6693,4.6698,4.6703,4.6809,0,0,4.6719,4.6721,0,0,0,0,0,0,0,0,4.6603,4.6612,4.6671,4.6669,4.6667,4.6693,4.6702,4.6763,4.6667,4.6665,4.6657,4.6653,4.6698,4.6702,4.6718,4.6811,4.6813,4.6719,4.6722,4.6724,4.6726,0,0,0,0,0,0,0,4.66,4.661,4.6714,4.6672,4.6669,4.6649,4.6653,4.6713,4.6702,4.6665,4.666,4.6666,4.6696,4.6713,4.6718,4.6813,4.6719,4.6723,4.6727,4.6729,4.6994,4.6998,0,0,0,0,0,0,4.66,4.6607,4.6713,4.6716,4.6625,4.6655,4.6659,4.6688,4.6701,4.6699,4.6669,4.6662,4.6707,4.6712,4.6719,4.6843,4.6724,4.6729,4.6732,4.699,4.6995,4.6999,0,0,0,0,0,0,4.6598,4.6611,4.6711,4.666,4.6671,4.6662,4.6695,4.6691,4.6708,4.6704,4.6701,4.6689,4.6704,4.6712,4.6787,4.6843,4.6731,4.6736,4.6985,4.6991,4.6997,4.7092,0,0,0,0,0,0,4.6594,4.661,4.6651,4.6662,4.6674,4.678,4.6699,4.6695,4.6718,4.6709,4.6722,4.6721,4.6702,4.678,4.6792,4.6848,4.674,4.698,4.6988,4.6995,4.7084,4.71,4.7115,0,0,0,0,0,4.6589,4.6676,4.6654,4.6667,4.6726,4.6784,4.6791,4.6768,4.6723,4.6763,4.676,4.672,4.6836,4.6789,4.6802,4.686,4.6976,4.6986,4.6994,4.7077,4.7097,4.7114,0,0,0,0,0,0,4.6671,4.6677,4.6652,4.6746,4.6765,4.6771,4.6821,4.679,4.6822,4.6813,4.6782,4.6785,4.6866,4.6871,4.6818,4.6962,4.6898,4.691,4.6956,4.6976,4.6991,4.6987,4.6744,0,0,0,0,0,4.6701,4.6749,4.675,4.6832,4.6843,4.6831,4.6855,4.6836,4.6854,4.6862,4.6864,4.6882,4.6922,4.6949,4.6986,4.7084,4.7085,4.7131,4.7146,4.7159,4.7169,4.722,4.7239,4.7029,4.7029,4.7029,0,0,4.6762,4.677,4.6802,4.6849,4.6862,4.691,4.6838,4.6893,4.6928,4.687,4.694,4.6943,4.6961,4.7048,4.7086,4.7054,4.7228,4.7171,4.7181,4.7184,4.7231,4.7251,4.7269,4.7035,4.7034,4.7033,0,0,4.6896,4.6909,4.6978,4.6992,4.7013,4.7004,4.7021,4.7031,4.7031,4.7102,4.7058,4.71,4.717,4.7184,4.7201,4.7341,4.7305,4.7354,4.7434,4.7484,4.7501,4.7515,4.7563,4.7581,4.7364,4.7365,4.7365,0,4.6969,4.7042,4.7017,4.7075,4.7096,4.7046,4.7115,4.713,4.7161,4.7176,4.714,4.7226,4.7235,4.7324,4.7358,4.7374,4.739,4.7351,4.75,4.7515,4.7528,4.7574,4.7592,4.737,4.737,4.7369,4.7369,0,4.7129,4.718,4.7233,4.7265,4.7292,4.7355,4.7339,4.737,4.7348,4.7343,4.7415,4.7424,4.7461,4.7481,4.746,4.7566,4.7545,4.7506,4.744,4.7554,4.7596,4.7614,4.7379,4.7377,4.7375,4.7373,0,0,4.7316,4.7334,4.7354,4.7367,4.7386,4.7424,4.7484,4.7521,4.7547,4.7571,4.7619,4.768,4.7643,4.7661,4.7642,4.7686,4.7794,4.764,4.764,4.7667,4.791,4.7938,4.7959,4.7771,4.7775,4.7777,4.7908,0,4.7449,4.7553,4.7533,4.7635,4.768,4.7634,4.7686,4.7702,4.7699,4.7736,4.7732,4.7775,4.7724,4.7734,4.7776,4.7772,4.7842,4.7763,4.7814,4.7816,4.781,4.7982,4.8012,4.8135,4.7924,4.7927,4.7929,0,4.7617,4.7647,4.7754,4.7764,4.7783,4.783,4.7862,4.7899,4.7916,4.791,4.7932,4.7904,4.7962,4.7897,4.7976,4.7923,4.7943,4.7944,4.7948,4.7951,4.7878,4.7987,4.8174,4.8192,4.7955,4.7953,4.7951,0,4.7741,4.7808,4.788,4.7893,4.7908,4.7942,4.795,4.7963,4.7986,4.8014,4.8028,4.8063,4.8081,4.8107,4.8088,4.8043,4.817,4.8104,4.8165,4.8166,4.8192,4.8191,4.8383,4.8209,4.8208,4.8208,4.8208,0,4.7891,4.7957,4.7936,4.798,4.8053,4.8028,4.81,4.8102,4.8115,4.8157,4.8119,4.816,4.8133,4.8172,4.8157,4.8224,4.8233,4.8229,4.8224,4.8231,4.8231,4.8242,4.8233,4.8213,4.8212,4.8211,4.821,0,4.8041,4.803,4.8105,4.8112,4.8116,4.8169,4.8175,4.8215,4.8209,4.8263,4.8274,4.8264,4.8307,4.8292,4.8337,4.8328,4.8412,4.8397,4.8406,4.8402,4.8463,4.8457,4.8668,4.8694,4.8504,4.8506,4.8508,0,4.8136,4.8186,4.8199,4.8225,4.8236,4.8279,4.8302,4.828,4.8306,4.8329,4.8366,4.8406,4.8436,4.8506,4.8502,4.8537,4.8521,4.8593,4.8526,4.8531,4.852,4.8517,4.8521,4.8605,4.8608,4.8609,4.8611,0,4.8306,4.8297,4.8334,4.8368,4.8397,4.8423,4.8445,4.8469,4.8447,4.8478,4.8522,4.8546,4.8592,4.8631,4.8662,4.8668,4.8636,4.8632,4.8648,4.8655,4.8658,4.8656,4.8441,4.8627,4.8625,4.8624,4.8623,4.8623,4.843,4.8472,4.8487,4.8529,4.8543,4.8564,4.8602,4.8601,4.8638,4.8674,4.8659,4.8709,4.8723,4.8761,4.8772,4.881,4.8782,4.8805,4.881,4.8816,4.8823,4.8654,4.8815,4.8815,4.8814,4.8814,4.8814,0,4.8596,4.8604,4.8642,4.8674,4.8707,4.8675,4.8697,4.8726,4.8771,4.8788,4.8818,4.8868,4.8906,4.8905,4.894,4.897,4.8956,4.898,4.8976,4.8978,4.8847,4.8829,4.899,4.899,4.899,4.899,4.899,4.899,4.8686,4.8755,4.8749,4.8823,4.883,4.888,4.8895,4.8914,4.8927,4.8985,4.9016,4.9016,4.9025,4.906,4.9093,4.9091,4.9105,4.9134,4.9127,4.9005,4.8987,4.897,4.8953,4.9138,4.9138,4.9255,4.9256,4.9257]}]]